Wind_Speed
19 12 8 4 7 7 9 14 15 19 17 20 19 15 16 22 29 30 33 39 42 46 53 64 80 84 82 88 70 44 47 58 71 52 67 69 65 60 55 51 47 45 42 41
9 8 9 10 9 11 14 15 16 14 20 20 9 2 7 17 20 22 26 31 39 41 48 57 67 81 81 87 80 59 49 47 60 51 64 68 64 61 56 51 49 46 44 43
9 10 12 15 16 14 13 9 15 19 18 18 11 2 8 10 16 18 25 30 32 34 42 56 66 73 75 84 92 59 42 57 60 46 49 65 67 66 60 56 54 50 48 45
12 10 9 15 18 13 7 7 8 11 10 4 7 3 7 13 15 15 21 20 26 35 42 53 72 70 70 75 89 65 42 57 55 42 45 62 72 67 62 57 56 54 49 46
14 9 6 13 13 7 13 12 14 12 3 4 7 15 5 1 5 6 12 18 24 30 42 46 76 58 60 76 82 57 38 38 54 43 43 52 74 66 62 60 60 50 50 50
15 12 9 8 10 12 16 16 15 12 7 9 13 7 7 3 3 4 4 15 18 31 31 47 73 53 65 67 80 67 48 51 43 42 39 40 72 65 62 61 57 54 54 52
14 11 8 10 11 11 14 19 17 6 10 17 9 14 8 9 8 8 5 8 14 26 25 40 66 52 67 64 70 77 48 42 40 54 51 55 60 53 55 55 55 56 56 58
12 12 9 10 10 12 19 18 17 14 4 7 9 15 6 9 5 6 1 7 5 13 24 49 54 52 59 61 68 73 38 32 36 43 53 41 54 53 45 50 58 59 60 59
12 14 18 10 9 15 25 20 15 8 7 9 9 27 20 9 8 6 7 20 8 22 26 43 45 46 52 58 62 70 62 32 37 38 52 49 51 48 57 52 58 63 65 63
15 19 18 18 15 16 19 19 21 22 22 30 33 34 29 22 17 10 13 14 15 20 17 19 32 39 52 46 55 50 47 34 24 44 50 55 52 57 50 51 54 61 64 62
11 19 19 13 12 17 19 20 23 26 26 29 34 34 35 21 14 8 19 22 20 17 19 16 24 40 52 50 53 46 31 15 17 31 49 56 58 41 59 49 50 46 52 50
11 14 16 15 12 18 19 19 16 19 24 30 37 38 35 28 20 13 14 25 26 17 19 21 28 40 29 23 30 41 46 36 12 20 23 40 42 48 38 53 55 51 53 48
11 10 11 15 18 18 16 18 12 16 21 26 38 36 34 33 16 18 20 30 17 22 30 21 24 30 23 24 25 24 30 13 11 15 16 25 21 19 31 37 30 36 51 46
18 15 16 18 18 16 14 12 18 16 17 26 34 29 36 38 33 23 22 35 39 39 27 24 31 24 19 20 19 19 27 25 16 9 16 6 7 8 7 11 8 8 16 29
18 20 20 24 22 21 16 22 21 19 23 24 30 28 36 34 43 29 21 23 38 41 27 29 33 26 22 26 24 26 19 29 31 27 22 26 22 19 22 20 21 13 14 17
15 14 16 18 17 21 20 20 21 21 23 27 25 26 28 29 34 33 25 22 21 48 34 27 21 26 24 23 23 22 24 26 17 20 18 19 22 19 20 19 18 18 17 16
13 13 14 17 16 14 14 15 15 16 18 21 21 22 24 26 27 28 30 29 23 24 21 29 27 17 23 21 17 20 17 24 22 21 22 26 27 27 25 23 24 24 28 25
12 12 13 12 12 12 11 13 14 15 16 16 15 17 18 19 21 19 18 18 17 14 12 8 4 12 7 7 14 17 21 25 27 28 28 27 25 25 25 28 29 32 32 30
8 7 9 10 11 13 12 11 11 13 13 14 13 14 14 14 14 13 11 9 8 7 4 6 9 10 15 19 21 16 16 16 18 17 20 24 29 32 33 31 32 32 34 35
12 9 6 5 6 10 14 14 11 9 8 10 13 14 15 14 14 12 11 10 8 6 5 5 7 9 12 15 16 19 19 18 21 23 26 29 30 34 36 30 31 31 33 35
28 24 23 21 16 12 13 13 12 12 15 10 10 11 10 12 12 12 13 12 10 11 10 10 11 13 16 19 21 23 24 26 27 29 30 32 34 37 38 40 41 42 44 44
33 34 31 31 30 27 28 30 27 24 21 18 17 16 15 13 11 11 13 14 15 15 15 15 15 14 17 20 24 26 27 29 31 33 36 40 40 40 41 44 47 48 49 49
31 32 34 36 36 37 37 36 35 35 35 33 32 33 33 31 32 30 26 23 23 23 23 22 21 22 23 24 27 29 30 31 33 36 36 37 39 42 47 49 49 50 51 52
26 29 30 29 30 30 28 28 29 29 29 29 28 27 26 27 27 28 27 26 27 27 28 29 30 31 31 31 28 26 29 34 36 38 39 40 41 42 44 45 47 50 51 51
23 25 27 27 26 26 26 25 25 24 22 21 21 20 18 18 17 17 19 19 18 19 19 20 21 20 21 25 33 41 41 37 32 29 36 42 43 44 44 44 45 48 48 50
19 20 21 21 22 22 22 23 23 23 22 21 20 18 18 16 16 15 13 15 16 15 17 13 12 14 16 21 28 37 45 49 45 40 36 34 37 43 45 48 46 40 43 47
Wind_Direction
317 320 327 11 26 10 350 336 326 324 321 312 292 274 262 260 234 231 238 224 232 231 228 218 208 208 205 198 195 184 187 207 214 212 215 209 206 209 209 211 215 219 220 224
53 44 22 1 344 334 324 324 321 324 316 321 284 235 258 238 231 223 227 232 234 233 223 218 210 207 202 198 193 185 188 210 208 214 217 209 208 208 209 211 216 218 223 226
4 352 340 343 347 337 312 318 309 307 297 301 261 210 257 233 233 215 231 235 232 231 221 210 208 202 201 201 199 193 204 200 198 203 218 212 211 210 209 212 215 218 222 227
327 328 340 357 349 349 333 333 352 316 312 272 264 124 341 226 225 241 235 222 225 220 216 210 199 199 200 205 204 199 190 178 209 217 219 223 213 213 212 211 217 221 222 226
352 353 356 15 5 331 331 322 318 320 297 246 295 305 30 168 182 223 237 240 220 209 204 211 205 193 197 203 198 184 183 184 202 202 222 223 220 210 209 214 220 219 223 227
353 345 41 22 12 1 311 354 342 309 350 342 352 295 29 138 183 161 266 247 227 211 210 210 201 192 201 202 202 206 203 195 190 196 219 225 211 213 212 217 217 221 224 229
353 26 69 42 34 10 348 16 17 2 10 4 22 37 27 226 184 142 164 211 233 214 216 212 194 189 201 202 203 204 191 188 191 199 208 204 215 202 206 213 221 222 224 228
32 72 63 57 51 38 27 37 47 80 16 37 4 25 68 134 89 34 78 145 140 200 201 207 193 196 199 200 203 205 195 194 202 206 194 211 207 207 205 215 218 222 225 227
57 79 65 69 78 50 44 61 74 121 31 48 73 68 81 92 132 116 125 134 136 187 198 207 200 193 198 204 206 207 213 219 215 193 204 206 211 210 218 214 219 225 228 228
44 62 72 60 93 75 44 62 75 113 87 77 70 60 53 113 117 108 128 118 162 180 196 206 200 195 199 207 214 212 204 202 207 204 201 204 207 208 216 219 224 226 229 234
70 75 65 56 94 99 72 76 79 88 92 82 72 63 55 110 144 128 129 129 142 179 198 215 197 199 206 208 210 185 197 207 219 201 213 220 220 220 224 218 224 225 229 239
96 77 75 62 95 111 100 95 93 93 91 85 78 65 65 102 82 101 128 133 142 180 190 181 181 196 208 219 229 227 229 235 229 231 236 215 222 218 216 220 226 227 246 244
106 97 65 73 97 109 102 95 93 78 81 78 81 69 64 91 106 99 133 142 144 155 161 172 188 198 216 212 224 219 231 230 180 173 179 201 184 211 233 220 207 232 229 235
104 97 102 102 99 108 107 99 81 75 78 78 80 76 57 71 91 98 113 136 136 140 159 180 187 211 213 239 232 228 230 220 218 174 174 223 228 244 208 190 210 208 214 213
103 94 86 101 98 90 93 93 82 88 86 86 79 80 65 54 54 83 107 114 121 142 162 178 187 201 220 224 234 251 242 239 255 264 282 285 289 291 299 304 302 271 229 252
105 99 94 102 105 104 100 91 95 90 87 83 80 82 83 80 66 53 88 78 99 136 140 165 182 193 215 229 248 230 238 241 263 263 257 264 276 272 275 274 250 269 264 246
116 110 105 104 103 98 97 94 95 90 90 88 92 86 86 84 80 74 55 49 68 111 130 150 153 191 176 190 221 225 238 249 256 259 257 255 256 260 260 254 255 246 227 230
125 123 120 108 102 101 97 97 95 96 93 86 76 78 80 83 85 76 73 60 46 38 29 69 118 167 166 203 218 238 243 248 250 250 250 250 251 247 248 257 256 251 235 226
145 131 116 109 106 102 94 108 112 100 95 89 83 71 63 59 66 78 79 78 88 89 18 328 326 318 306 306 305 290 287 281 253 257 255 248 244 251 253 249 237 229 229 226
101 128 143 144 116 108 99 109 123 114 85 71 71 56 45 43 42 39 48 40 21 358 325 305 276 264 258 254 251 262 260 257 260 268 272 269 272 271 275 269 271 266 258 256
65 65 68 74 90 119 108 107 116 109 83 67 52 44 42 30 23 19 10 10 11 354 337 321 306 292 281 273 268 263 260 261 257 256 254 253 253 252 254 255 255 253 253 250
78 77 72 75 73 74 80 82 76 75 70 62 55 46 37 29 20 6 355 346 331 325 317 314 307 301 296 290 288 285 277 271 267 262 260 257 255 257 258 256 256 254 254 255
89 86 86 83 85 85 86 89 87 82 80 76 71 67 62 60 59 56 46 31 19 4 353 343 331 315 302 293 285 283 283 281 278 276 273 268 263 262 260 259 259 259 259 257
84 85 84 89 82 82 83 82 78 77 75 73 70 68 66 60 54 53 51 44 39 35 27 15 0 350 342 334 328 320 301 282 279 279 277 274 270 267 264 263 263 263 263 263
77 77 76 73 73 72 67 65 65 65 65 63 61 58 59 53 47 43 37 28 22 15 7 2 1 349 342 330 315 313 315 313 307 299 282 273 269 267 264 262 260 259 260 260
75 75 78 76 70 69 66 63 60 59 55 53 49 44 40 32 25 18 13 6 1 354 350 335 321 317 311 302 300 299 301 305 309 308 302 295 284 273 269 265 264 258 262 261
Height
5586 5584 5581 5579 5577 5575 5573 5569 5566 5561 5557 5549 5545 5544 5546 5546 5545 5550 5559 5566 5571 5578 5585 5593 5607 5621 5643 5668 5683 5692 5712 5718 5733 5740 5749 5757 5766 5778 5785 5793 5800 5806 5812 5816
5586 5583 5582 5580 5578 5575 5570 5566 5562 5559 5553 5549 5544 5542 5543 5542 5544 5549 5556 5560 5565 5572 5578 5586 5598 5618 5640 5659 5671 5690 5701 5710 5725 5737 5744 5751 5760 5770 5779 5788 5793 5801 5806 5810
5585 5584 5582 5580 5576 5573 5568 5563 5560 5556 5553 5550 5545 5543 5543 5544 5547 5548 5552 5554 5560 5567 5574 5585 5596 5613 5634 5651 5663 5680 5694 5706 5718 5727 5736 5743 5752 5762 5771 5778 5785 5792 5798 5805
5584 5583 5580 5577 5573 5571 5569 5566 5562 5558 5553 5550 5547 5545 5545 5542 5545 5548 5550 5554 5558 5563 5570 5579 5595 5609 5630 5643 5658 5677 5686 5699 5714 5723 5731 5741 5749 5757 5765 5772 5779 5784 5792 5797
5584 5580 5578 5576 5574 5572 5571 5568 5562 5558 5555 5552 5550 5547 5546 5544 5545 5547 5550 5554 5558 5562 5570 5581 5590 5608 5627 5640 5655 5668 5681 5694 5707 5717 5724 5731 5741 5750 5756 5763 5770 5777 5784 5788
5579 5578 5578 5576 5574 5573 5570 5567 5561 5559 5557 5554 5552 5550 5549 5546 5545 5546 5552 5556 5559 5564 5572 5582 5593 5608 5623 5641 5657 5665 5678 5692 5699 5710 5719 5725 5734 5740 5747 5755 5763 5769 5777 5783
5579 5578 5578 5576 5575 5573 5570 5566 5562 5562 5560 5554 5555 5552 5550 5547 5546 5548 5552 5558 5563 5568 5575 5582 5600 5613 5625 5643 5656 5666 5678 5687 5696 5709 5715 5719 5726 5733 5740 5746 5755 5761 5769 5775
5579 5580 5579 5578 5576 5575 5570 5569 5567 5565 5565 5562 5559 5557 5554 5554 5554 5556 5557 5560 5564 5570 5577 5588 5604 5617 5630 5645 5657 5665 5676 5683 5693 5699 5709 5709 5722 5728 5733 5738 5746 5754 5762 5768
5582 5581 5580 5578 5577 5577 5573 5572 5572 5570 5569 5567 5564 5562 5559 5558 5558 5560 5561 5563 5569 5577 5587 5597 5610 5622 5636 5645 5654 5664 5674 5685 5690 5699 5702 5709 5716 5722 5725 5732 5739 5745 5752 5757
5585 5583 5582 5581 5580 5579 5577 5574 5576 5575 5574 5572 5568 5565 5564 5563 5564 5564 5565 5571 5576 5586 5595 5605 5616 5628 5638 5645 5655 5666 5678 5685 5688 5689 5697 5705 5710 5715 5720 5727 5732 5737 5744 5750
5586 5586 5586 5585 5583 5582 5582 5580 5580 5579 5577 5575 5572 5571 5568 5568 5568 5569 5570 5574 5581 5593 5602 5611 5620 5630 5638 5647 5657 5665 5672 5677 5685 5690 5694 5699 5706 5711 5715 5719 5727 5733 5738 5742
5590 5588 5588 5588 5586 5586 5586 5586 5587 5586 5584 5581 5577 5578 5578 5576 5577 5576 5577 5581 5589 5597 5604 5612 5619 5631 5640 5649 5655 5662 5668 5677 5684 5686 5689 5696 5703 5707 5710 5716 5721 5727 5730 5735
5593 5592 5592 5590 5592 5591 5593 5592 5592 5592 5590 5587 5582 5585 5586 5583 5583 5582 5585 5589 5593 5600 5612 5616 5624 5632 5641 5647 5655 5661 5669 5680 5681 5685 5685 5691 5699 5704 5706 5710 5717 5719 5723 5729
5596 5597 5596 5595 5596 5596 5596 5596 5597 5598 5597 5593 5589 5593 5591 5590 5589 5590 5592 5594 5598 5598 5608 5618 5626 5637 5642 5651 5657 5663 5669 5676 5678 5683 5687 5691 5695 5698 5702 5706 5711 5718 5717 5720
5600 5601 5601 5601 5601 5601 5602 5600 5600 5602 5600 5601 5598 5599 5597 5597 5596 5597 5599 5601 5601 5608 5616 5621 5629 5637 5646 5652 5658 5663 5668 5674 5677 5679 5684 5689 5692 5695 5697 5699 5704 5712 5716 5719
5605 5605 5605 5606 5606 5607 5607 5606 5604 5606 5605 5602 5604 5605 5604 5606 5605 5607 5606 5609 5613 5615 5622 5629 5636 5642 5646 5650 5656 5664 5668 5673 5674 5679 5681 5685 5689 5691 5693 5695 5697 5700 5705 5710
5608 5610 5611 5610 5611 5611 5611 5610 5610 5610 5609 5609 5611 5611 5611 5612 5612 5614 5616 5620 5623 5628 5633 5638 5641 5646 5650 5653 5656 5659 5663 5668 5671 5675 5678 5680 5682 5684 5687 5689 5692 5695 5698 5702
5611 5612 5612 5614 5614 5615 5614 5612 5613 5614 5613 5612 5612 5614 5615 5615 5618 5620 5622 5625 5629 5635 5638 5643 5644 5647 5649 5652 5655 5658 5661 5665 5668 5670 5672 5674 5675 5676 5678 5681 5684 5685 5690 5693
5612 5613 5614 5615 5615 5617 5615 5616 5616 5616 5618 5617 5617 5616 5616 5617 5619 5622 5625 5627 5631 5633 5638 5641 5644 5647 5650 5653 5655 5658 5660 5662 5664 5666 5666 5668 5669 5669 5671 5673 5676 5678 5680 5683
5614 5615 5616 5616 5616 5617 5619 5619 5619 5618 5617 5618 5618 5618 5617 5618 5620 5622 5627 5629 5631 5634 5636 5639 5643 5645 5647 5648 5650 5653 5654 5654 5655 5658 5660 5661 5661 5665 5667 5668 5668 5670 5672 5673
5619 5619 5620 5619 5620 5621 5621 5622 5623 5624 5627 5621 5621 5622 5623 5623 5623 5624 5624 5625 5631 5633 5636 5638 5640 5641 5642 5644 5644 5645 5645 5646 5649 5650 5649 5650 5651 5653 5653 5654 5656 5657 5659 5661
5629 5628 5626 5625 5626 5627 5624 5626 5628 5629 5627 5627 5627 5626 5626 5626 5626 5624 5623 5624 5624 5627 5631 5634 5637 5639 5640 5640 5639 5638 5639 5639 5639 5639 5640 5642 5641 5642 5642 5643 5643 5642 5643 5645
5640 5639 5638 5636 5636 5636 5636 5635 5634 5635 5635 5634 5633 5633 5632 5631 5632 5632 5632 5629 5626 5623 5620 5622 5623 5624 5628 5629 5630 5631 5630 5630 5628 5626 5627 5627 5626 5628 5629 5630 5631 5631 5631 5632
5646 5645 5645 5645 5645 5645 5645 5643 5643 5643 5642 5642 5640 5639 5639 5639 5639 5639 5640 5639 5637 5636 5631 5625 5620 5616 5617 5616 5616 5617 5618 5619 5618 5616 5617 5616 5615 5615 5615 5616 5616 5617 5616 5617
5654 5652 5651 5651 5650 5650 5649 5649 5649 5649 5648 5647 5647 5646 5646 5646 5645 5644 5643 5642 5641 5639 5637 5636 5633 5630 5624 5619 5612 5606 5603 5603 5604 5603 5605 5605 5603 5602 5602 5602 5603 5603 5603 5602
5659 5659 5658 5657 5655 5655 5654 5654 5654 5653 5652 5652 5651 5650 5649 5648 5647 5645 5644 5642 5640 5638 5637 5634 5631 5627 5625 5620 5614 5608 5602 5596 5592 5590 5588 5587 5587 5586 5586 5587 5588 5587 5585 5586